Flag for New Zealand Weather past 2 weeks in Wellington, New Zealand

Now
52 °F

Sprinkles. Mostly cloudy.


Feels Like: 46 °F
Forecast: 53 / 56 °F
Wind: 21 mph from North

Location: Wellington Airport

Current Time: Jul 29, 2014 at 4:45:31 PM

Latest Report: Jul 29, 2014 at 4:00 PM


Visibility: N/A

Pressure: 30.01 "Hg

Humidity: 88%

Dew point: 48 °F

Location of WellingtonLocation

Historic Weather in Wellington — Graph

°F

Wellington temperature yesterday

Maximum temperature yesterday: 54 °F (at 10:00 PM)
Minimum temperature yesterday: 43 °F (at 7:30 AM)
Average temperature yesterday: 49 °F

Past Weeks' High & Low Weather Summary

 TemperatureHumidityPressure
High55 °F (Jul 24, 12:30 PM)100% (Jul 14, 3:00 PM)30.24 "Hg (Jul 14, 3:00 PM)
Low39 °F (Jul 24, 2:30 AM)58% (Jul 15, 5:30 PM)29.50 "Hg (Jul 21, 12:30 AM)
Average49 °F78%29.92 "Hg
* Reported Jul 14 3:00 PM — Jul 29 3:30 PM, Wellington, Weather by CustomWeather, © 2014

Note: Actual official high and low records may vary slightly from our data, if they occured in-between our weather recording intervals... More about our weather records

Advertising

Wellington weather history for previous 24 hours

 ConditionsComfort  
Time TempWeatherWind HumidityBarometerVisibility
3:30 PM
Jul 29
54 °FDrizzle. Partly sunny.21 mph82%30.01 "HgN/A
3:00 PM54 °FOvercast.20 mph82%30.04 "HgN/A
2:30 PM54 °FPartly sunny.20 mph82%30.04 "HgN/A
2:00 PM55 °FPartly sunny.21 mph77%30.04 "HgN/A
1:30 PM54 °FPartly sunny.21 mph77%30.04 "HgN/A
1:00 PM54 °FScattered clouds.26 mph77%30.04 "HgN/A
12:30 PM54 °FPartly sunny.22 mph77%30.07 "HgN/A
12:00 PM52 °FOvercast.18 mph82%30.07 "HgN/A
11:30 AM52 °FOvercast.20 mph77%30.09 "HgN/A
11:00 AM52 °FOvercast.17 mph77%30.09 "HgN/A
10:30 AM52 °FOvercast.15 mph72%30.09 "HgN/A
10:00 AM50 °FOvercast.16 mph76%30.09 "HgN/A
9:30 AM50 °FMostly cloudy.22 mph76%30.09 "HgN/A
8:30 AM50 °FPartly sunny.25 mph71%30.09 "HgN/A
8:00 AM50 °FPassing clouds.29 mph76%30.09 "HgN/A
7:30 AM50 °FPassing clouds.25 mph71%30.09 "HgN/A
7:00 AM52 °FPassing clouds.23 mph72%30.09 "HgN/A
6:30 AM52 °FPassing clouds.23 mph72%30.09 "HgN/A
6:00 AM52 °FPassing clouds.21 mph72%30.09 "HgN/A
5:30 AM52 °FPassing clouds.23 mph72%30.09 "HgN/A
5:00 AM54 °FMostly cloudy.20 mph67%30.09 "HgN/A
4:30 AM54 °FMostly cloudy.22 mph63%30.09 "HgN/A
4:00 AM54 °FOvercast.24 mph67%30.09 "HgN/A
3:30 AM54 °FPassing clouds.21 mph67%30.12 "HgN/A
3:00 AM54 °FOvercast.20 mph67%30.12 "HgN/A
2:30 AM54 °FPassing clouds.21 mph67%30.12 "HgN/A
2:00 AM54 °FOvercast.24 mph67%30.12 "HgN/A
1:30 AM54 °FOvercast.21 mph67%30.12 "HgN/A
1:00 AM54 °FPartly cloudy.24 mph72%30.12 "HgN/A
12:30 AM54 °FPartly cloudy.23 mph72%30.12 "HgN/A
12:00 AM54 °FPassing clouds.24 mph72%30.12 "HgN/A
11:30 PM
Jul 28
54 °FPassing clouds.20 mph72%30.12 "HgN/A
11:00 PM54 °FPassing clouds.22 mph72%30.12 "HgN/A
10:30 PM54 °FMostly cloudy.21 mph72%30.12 "HgN/A
10:00 PM54 °FOvercast.21 mph77%30.12 "HgN/A
9:30 PM52 °FPartly cloudy.21 mph82%30.12 "HgN/A
9:00 PM52 °FPassing clouds.18 mph77%30.12 "HgN/A
8:30 PM52 °FPassing clouds.17 mph77%30.15 "HgN/A
8:00 PM52 °FMostly cloudy.18 mph77%30.15 "HgN/A
7:30 PM52 °FPassing clouds.17 mph77%30.15 "HgN/A
7:00 PM52 °FPassing clouds.17 mph72%30.15 "HgN/A
6:30 PM50 °FMostly cloudy.18 mph76%30.15 "HgN/A
6:00 PM50 °FOvercast.20 mph76%30.15 "HgN/A
5:30 PM50 °FMostly cloudy.20 mph76%30.15 "HgN/A
5:00 PM50 °FPassing clouds.17 mph76%30.15 "HgN/A
4:30 PM50 °FPassing clouds.18 mph76%30.15 "HgN/A
4:00 PM50 °FPartly sunny.20 mph76%30.15 "HgN/A
Weather by CustomWeather, © 2014

See weather overviewHow to use our weather pages